Weather History for KRUT - January, 2014

Change the Weather History Date:

Saturday, January 11, 2014

  Actual Average Record
Temperature  
Mean Temperature 42 °F -  
Max Temperature 55 °F - 55 °F (2014)
Min Temperature 28 °F - -25 °F (1968)
Degree Days  
Heating Degree Days 23    
Month to date heating degree days 562  
Since 1 July heating degree days 3494  
Cooling Degree Days 0    
Month to date cooling degree days 0  
Year to date cooling degree days 0  
Moisture  
Dew Point 43 °F    
Average Humidity 91    
Maximum Humidity 96    
Minimum Humidity 85    
Precipitation  
Precipitation 1.12 in - 1.12 in (2014)
Month to date precipitation 1.63  
Year to date precipitation 1.63  
Sea Level Pressure  
Sea Level Pressure 29.62 in    
Wind  
Wind Speed 13 mph (SE)    
Max Wind Speed 21 mph    
Max Gust Speed 29 mph    
Visibility 10 miles    
Events      
T = Trace of Precipitation, MM = Missing Value Source: NWS Daily Summary

Daily Weather History Graph

Daily Weather History Graph

Search for Another Location

Airport or City:

Trip Planner

Search our weather history database for the weather conditions in past years. The results will help you decide how hot, cold, wet, or windy it might be!

Date:

Astronomy

Jan. 11, 2014 Rise Set
Actual Time 7:23 AM EST 4:36 PM EST
Civil Twilight 6:51 AM EST 5:08 PM EST
Nautical Twilight 6:15 AM EST 5:43 PM EST
Astronomical Twilight 5:41 AM EST 6:18 PM EST
Moon 1:19 PM EST (1/11) 3:24 AM EST (1/11)
Length of Visible Light 10h 16m
Length of Day
9h 12m
Waxing Gibbous, 83% of the Moon is Illuminated
Jan 11
Waxing Gibbous
Jan 15
Full
Jan 24
Last Quarter
Jan 30
New
Feb 6
First Quarter

Hourly Weather History & Observations

Time (EST) Temp. Windchill Dew Point Humidity Pressure Visibility Wind Dir Wind Speed Gust Speed Precip Events Conditions
12:15 AM 32.0 °F 26.4 °F 26.6 °F 80% 30.17 in 10.0 mi SE 5.8 mph - N/A   Overcast
12:35 AM 30.2 °F 26.7 °F 26.6 °F 86% 30.16 in 10.0 mi SE 3.5 mph - N/A   Overcast
12:55 AM 30.2 °F 21.9 °F 26.6 °F 86% 30.14 in 10.0 mi ESE 9.2 mph - N/A   Partly Cloudy
1:15 AM 28.4 °F 23.3 °F 26.6 °F 93% 30.13 in 9.0 mi WSW 4.6 mph - N/A   Clear
1:35 AM 28.4 °F 24.6 °F 26.6 °F 93% 30.13 in 10.0 mi South 3.5 mph - N/A   Mostly Cloudy
1:55 AM 30.2 °F 22.6 °F 28.4 °F 93% 30.12 in 10.0 mi SE 8.1 mph - N/A   Overcast
2:15 AM 33.8 °F 30.8 °F 28.4 °F 81% 30.11 in 10.0 mi SSE 3.5 mph - N/A   Overcast
2:35 AM 32.0 °F 27.5 °F 28.4 °F 87% 30.10 in 10.0 mi SE 4.6 mph - N/A   Overcast
2:55 AM 33.8 °F 25.8 °F 30.2 °F 87% 30.09 in 10.0 mi SE 10.4 mph - N/A   Overcast
3:15 AM 33.8 °F 24.3 °F 30.2 °F 87% 30.06 in 8.0 mi SE 13.8 mph - N/A   Overcast
3:35 AM 33.8 °F 25.3 °F 32.0 °F 93% 30.04 in 10.0 mi SSE 11.5 mph - N/A   Overcast
3:55 AM 35.6 °F 26.2 °F 32.0 °F 87% 30.02 in 10.0 mi SE 15.0 mph 19.6 mph N/A   Overcast
4:15 AM 35.6 °F 26.6 °F 33.8 °F 93% 30.01 in 7.0 mi SE 13.8 mph 23.0 mph 0.01 in   Overcast
4:35 AM 35.6 °F 24.5 °F 33.8 °F 93% 29.99 in 10.0 mi ESE 20.7 mph 28.8 mph 0.04 in   Overcast
4:55 AM 35.6 °F 24.5 °F 33.8 °F 93% 29.98 in 8.0 mi SE 20.7 mph 25.3 mph 0.04 in   Overcast
5:15 AM 37.4 °F 27.8 °F 35.6 °F 93% 29.96 in 9.0 mi SE 17.3 mph 26.5 mph 0.01 in   Overcast
5:35 AM 37.4 °F 27.2 °F 35.6 °F 93% 29.94 in 10.0 mi ESE 19.6 mph 28.8 mph 0.01 in   Overcast
5:55 AM 39.2 °F 29.3 °F 35.6 °F 87% 29.92 in 10.0 mi SE 20.7 mph 27.6 mph 0.01 in   Overcast
6:15 AM 39.2 °F 29.8 °F 37.4 °F 93% 29.91 in 9.0 mi ESE 18.4 mph 24.2 mph 0.02 in   Overcast
6:35 AM 39.2 °F 29.3 °F 37.4 °F 93% 29.89 in 10.0 mi ESE 20.7 mph 26.5 mph 0.03 in   Overcast
6:55 AM 41.0 °F 31.9 °F 37.4 °F 87% 29.87 in 10.0 mi ESE 19.6 mph 28.8 mph 0.03 in   Overcast
7:15 AM 41.0 °F 31.9 °F 39.2 °F 93% 29.85 in 10.0 mi ESE 19.6 mph 26.5 mph N/A   Overcast
7:35 AM 42.8 °F 33.8 °F 39.2 °F 87% 29.84 in 10.0 mi SE 21.9 mph 28.8 mph 0.01 in   Overcast
7:55 AM 42.8 °F 34.8 °F 41.0 °F 93% 29.81 in 10.0 mi SE 17.3 mph 27.6 mph 0.01 in   Overcast
8:15 AM 44.6 °F 37.4 °F 42.8 °F 93% 29.80 in 10.0 mi SE 16.1 mph 29.9 mph N/A   Overcast
8:35 AM 44.6 °F 37.8 °F 42.8 °F 93% 29.79 in 9.0 mi ESE 15.0 mph 24.2 mph 0.01 in   Overcast
8:55 AM 44.6 °F 37.4 °F 42.8 °F 93% 29.79 in 10.0 mi SE 16.1 mph 24.2 mph 0.01 in   Overcast
9:15 AM 46.4 °F 39.2 °F 42.8 °F 87% 29.77 in 10.0 mi SE 18.4 mph 24.2 mph N/A   Overcast
9:35 AM 46.4 °F 39.8 °F 42.8 °F 87% 29.77 in 7.0 mi SE 16.1 mph 21.9 mph 0.03 in   Overcast
9:55 AM 46.4 °F 39.0 °F 44.6 °F 93% 29.74 in 8.0 mi ESE 19.6 mph 24.2 mph 0.03 in   Overcast
10:15 AM 46.4 °F 39.2 °F 44.6 °F 93% 29.72 in 10.0 mi ESE 18.4 mph 24.2 mph 0.01 in   Overcast
10:35 AM 46.4 °F 40.1 °F 44.6 °F 93% 29.71 in 10.0 mi SE 15.0 mph 23.0 mph 0.01 in   Overcast
10:55 AM 48.2 °F - 46.4 °F 93% 29.69 in 10.0 mi SE 15.0 mph 25.3 mph 0.02 in   Overcast
11:15 AM 48.2 °F - 46.4 °F 93% 29.66 in 9.0 mi SE 19.6 mph 26.5 mph 0.01 in   Overcast
11:35 AM 48.2 °F - 46.4 °F 93% 29.64 in 7.0 mi SE 18.4 mph 25.3 mph 0.09 in   Overcast
11:55 AM 48.2 °F - 46.4 °F 93% 29.60 in 10.0 mi ESE 20.7 mph 25.3 mph 0.14 in   Overcast
12:15 PM 48.2 °F - 48.2 °F 100% 29.57 in 8.0 mi SE 15.0 mph 27.6 mph 0.06 in   Overcast
12:35 PM 50.0 °F - 48.2 °F 94% 29.55 in 8.0 mi SE 16.1 mph 23.0 mph 0.11 in   Overcast
12:55 PM 51.8 °F - 48.2 °F 88% 29.53 in 10.0 mi SE 17.3 mph 21.9 mph 0.15 in   Overcast
1:15 PM 51.8 °F - 48.2 °F 88% 29.51 in 9.0 mi SE 17.3 mph 21.9 mph 0.04 in   Overcast
1:35 PM 51.8 °F - 48.2 °F 88% 29.49 in 9.0 mi SE 18.4 mph - 0.08 in   Overcast
1:55 PM 51.8 °F - 48.2 °F 88% 29.46 in 10.0 mi SE 18.4 mph - 0.10 in   Mostly Cloudy
2:15 PM 51.8 °F - 48.2 °F 88% 29.44 in 10.0 mi SE 20.7 mph 26.5 mph 0.01 in   Overcast
2:35 PM 51.8 °F - 48.2 °F 88% 29.43 in 9.0 mi SE 17.3 mph 25.3 mph 0.06 in   Mostly Cloudy
2:55 PM 51.8 °F - 48.2 °F 88% 29.41 in 5.0 mi SE 17.3 mph 21.9 mph 0.16 in   Mostly Cloudy
3:15 PM 51.8 °F - 50.0 °F 94% 29.38 in 10.0 mi SSE 18.4 mph - 0.01 in   Overcast
3:35 PM 53.6 °F - 50.0 °F 88% 29.38 in 10.0 mi SE 17.3 mph 20.7 mph 0.01 in   Overcast
3:55 PM 51.8 °F - 50.0 °F 94% 29.35 in 10.0 mi SE 18.4 mph 23.0 mph 0.04 in   Overcast
4:15 PM 51.8 °F - 50.0 °F 94% 29.34 in 9.0 mi SE 15.0 mph 24.2 mph 0.03 in   Overcast
4:35 PM 51.8 °F - 50.0 °F 94% 29.33 in 8.0 mi SE 17.3 mph - 0.05 in   Overcast
4:55 PM 51.8 °F - 50.0 °F 94% 29.33 in 10.0 mi SE 11.5 mph - 0.08 in   Overcast
5:15 PM 53.6 °F - 51.8 °F 94% 29.32 in 10.0 mi South 12.7 mph - 0.02 in   Overcast
5:35 PM 55.4 °F - 53.6 °F 94% 29.30 in 10.0 mi SSE 8.1 mph - 0.05 in   Overcast
5:55 PM 55.4 °F - 53.6 °F 94% 29.29 in 10.0 mi SW 6.9 mph - 0.06 in   Overcast
6:15 PM 55.4 °F - 53.6 °F 94% 29.30 in 10.0 mi South 9.2 mph - N/A   Overcast
6:35 PM 53.6 °F - 51.8 °F 94% 29.28 in 10.0 mi SSE 4.6 mph - 0.01 in   Overcast
6:55 PM 53.6 °F - 51.8 °F 94% 29.28 in 10.0 mi SE 4.6 mph - 0.01 in   Overcast
7:15 PM 53.6 °F - 53.6 °F 100% 29.28 in 10.0 mi SSE 4.6 mph - 0.02 in   Overcast
7:35 PM 53.6 °F - 51.8 °F 94% 29.28 in 10.0 mi South 6.9 mph - 0.04 in   Overcast
7:55 PM 53.6 °F - 51.8 °F 94% 29.26 in 10.0 mi South 6.9 mph - 0.07 in   Overcast
8:15 PM 51.8 °F - 50.0 °F 94% 29.25 in 10.0 mi South 8.1 mph - 0.04 in   Overcast
8:35 PM 53.6 °F - 51.8 °F 94% 29.25 in 10.0 mi South 4.6 mph - 0.07 in   Overcast
8:55 PM 51.8 °F - 48.2 °F 88% 29.21 in 10.0 mi SE 8.1 mph - 0.08 in   Overcast
9:15 PM 50.0 °F - 48.2 °F 94% 29.20 in 10.0 mi SSE 8.1 mph - 0.01 in   Overcast
9:35 PM 50.0 °F - 48.2 °F 94% 29.20 in 10.0 mi SSE 4.6 mph - 0.01 in   Overcast
9:55 PM 50.0 °F - 48.2 °F 94% 29.20 in 8.0 mi SSE 4.6 mph - 0.03 in   Overcast
10:15 PM 50.0 °F - 48.2 °F 94% 29.21 in 10.0 mi SW 11.5 mph - 0.01 in   Overcast
10:35 PM 51.8 °F - 46.4 °F 82% 29.21 in 10.0 mi SW 8.1 mph 21.9 mph 0.02 in   Overcast
10:55 PM 50.0 °F - 46.4 °F 87% 29.25 in 10.0 mi West 11.5 mph 26.5 mph 0.05 in   Overcast
11:15 PM 48.2 °F - 44.6 °F 87% 29.27 in 10.0 mi WSW 13.8 mph - N/A   Overcast
11:35 PM 46.4 °F 40.4 °F 39.2 °F 76% 29.28 in 10.0 mi WSW 13.8 mph 17.3 mph N/A   Mostly Cloudy
11:55 PM 44.6 °F 40.7 °F 35.6 °F 71% 29.29 in 10.0 mi West 6.9 mph 21.9 mph N/A   Overcast